Regional Weather Roundup
Issued by NWS

Home | Current Version | Previous Version | Graphics & Text | Print | Product List | Glossary On
Versions: 1 2 3 4 5 6 7 8 9 10 11 12 13 14 15 16 17 18 19 20 21 22 23 24 25 26 27 28 29 30 31 32 33 34 35 36 37 38 39 40 41 42 43 44 45 46 47 48 49 50
000
ASUS45 KBOU 041407
RWRCO

WEATHER ROUNDUP FOR COLORADO
NATIONAL WEATHER SERVICE DENVER/BOULDER CO
800 AM MDT MON MAY 04 2015

NOTE: "FAIR" INDICATES FEW OR NO CLOUDS BELOW 12000 FEET WITH NO
SIGNIFICANT WEATHER AND/OR OBSTRUCTIONS TO VISIBILITY.

COZ001>005-013-030-031-041500-
...NORTHWEST COLORADO...

CITY           SKY/WX    TMP DP  RH WIND       PRES   REMARKS
CRAIG          PTSUNNY   48  42  80 CALM      30.09R
HAYDEN         PTSUNNY   46  37  71 CALM      30.09S
MEEKER         CLOUDY    43  39  86 CALM      30.10R
MOUNT WERNER   NOT AVBL
STEAMBOAT SPGS CLOUDY    44  38  80 CALM      30.10S
WALDEN         CLOUDY    37  34  87 CALM      30.15S
$$

COZ006>008-011-041500-
...WEST CENTRAL VALLEYS...

CITY           SKY/WX    TMP DP  RH WIND       PRES   REMARKS
GRAND JUNCTION MOSUNNY   59  42  53 E13       30.02R
MONTROSE       MOSUNNY   51  38  60 SE7       30.08S
EAGLE          PTSUNNY   43  39  87 CALM      30.14S
RIFLE          PTSUNNY   49  44  83 SE3       30.07R
DELTA          MOSUNNY   54  45  72 CALM      30.06S
NUCLA          MOSUNNY   52  36  54 SE7       30.09S
$$

COZ017>023-064>068-041500-
...SOUTHWEST COLORADO...

CITY           SKY/WX    TMP DP  RH WIND       PRES   REMARKS
DURANGO        MOSUNNY   47  38  71 CALM      30.10R
CORTEZ         PTSUNNY   40  35  83 NW3       30.06R
PAGOSA SPRINGS MOSUNNY   44  37  76 N3        30.16S
TELLURIDE      MOSUNNY   42  34  74 SE5       30.19S
WOLF CREEK PAS NOT AVBL
$$

COZ009-010-012-014-032>034-037-058>063-041500-
...CENTRAL COLORADO...

CITY           SKY/WX    TMP DP  RH WIND       PRES   REMARKS
ASPEN          PTSUNNY   41  37  86 S5        30.13R
BUENA VISTA    NOT AVBL
COPPER MTN     CLOUDY    36  28  75 S14G22    30.29R
BERTHOUD PASS  HAZE      27  19  74 E12       30.33R VSB<1/4 WCI  16
COTTONWOOD PAS CLOUDY    41  36  81 CALM      30.24R
GUNNISON       MOSUNNY   39  36  87 N3        30.20S
KREMMLING      PTSUNNY   37  34  87 CALM      30.16S
LEADVILLE      CLOUDY    35  34  96 CALM      30.22R
MONARCH PASS   PTSUNNY   32  32 100 MISG      30.41R
SALIDA         CLOUDY    47  42  80 CALM      30.25R
SUNLIGHT       CLOUDY    37  34  87 CALM      30.27R
WILKERSON PASS FOG       32  32 100 CALM      30.31S VSB<1/4
$$

COZ069>075-041500-
...SAN LUIS VALLEY/SANGRE DE CRISTO MOUNTAINS...

CITY           SKY/WX    TMP DP  RH WIND       PRES   REMARKS
ALAMOSA        PTSUNNY   41  35  79 S6        30.17R
LA VETA PASS   FOG       36  36 100 MISG      30.26R VSB<1/4
SAGUACHE       SUNNY     46  36  66 NW10      30.17S
$$

COZ035-036-038>040-041500-
...NORTHERN COLORADO FRONT RANGE...

CITY           SKY/WX    TMP DP  RH WIND       PRES   REMARKS
DENVER INTL AP CLOUDY    49  45  86 E5        30.13R
DMNS CITY PARK   N/A     51  46  81 NE5       30.13R
AURORA         LGT RAIN  48  48 100 E5        30.14S
FRONT RANGE AP DRIZZLE   50  48  93 NE3       30.14R
ERIE MUNI ARPT CLOUDY    50  49  95 CALM      30.12S
BOULDER MUN AP DRIZZLE   48  48 100 CALM      30.13S
CENTENNIAL     CLOUDY    50  46  86 VRB3      30.13S
BROOMFIELD     CLOUDY    50  48  93 CALM      30.14R
FORT COLLINS   CLOUDY    48  46  93 E5        30.14S
LONGMONT       DRIZZLE   52  50  92 CALM      30.14S
$$

COZ041-046-047-076>085-087-088-041500-
...PIKES PEAK/PALMER DIVIDE AND SOUTHERN FOOTHILLS...

CITY           SKY/WX    TMP DP  RH WIND       PRES   REMARKS
COLO. SPRINGS  PTSUNNY   52  47  83 N3        30.14R
A. F. ACADEMY  PTSUNNY   50  47  87 N6        30.14R
ELLICOTT       CLOUDY   N/A N/A N/A E6        30.13R
FALCON         CLOUDY    48  45  88 N5        30.16S
FORT CARSON    CLOUDY    52  46  80 NW3       30.12R
LIMON          CLOUDY    49  44  83 N6        30.13R
MONUMENT HILL  PTSUNNY   45  43  93 NW3       30.16R
TRINIDAD       SUNNY     52  43  71 NW8       30.12S
$$

COZ042>045-048>051-090-091-041500-
...NORTHEAST COLORADO...

CITY           SKY/WX    TMP DP  RH WIND       PRES   REMARKS
GREELEY ARPT   CLOUDY    50  39  66 E9        30.14S
AKRON          CLOUDY    47  40  76 E7        30.12R
BURLINGTON     CLOUDY    50  44  80 N9        30.11R
WRAY           CLOUDY    52  40  63 N6        30.12R
STERLING       RAIN      50  41  71 E3        30.13R
HOLYOKE        NOT AVBL
FORT MORGAN    RAIN      49  -3  12 E7        30.14R
$$

COZ086-089-092>099-041500-
...SOUTHEAST COLORADO...

CITY           SKY/WX    TMP DP  RH WIND       PRES   REMARKS
PUEBLO         CLOUDY    55  48  77 SE3       30.10R
LA JUNTA       PTSUNNY   58  50  75 N12       30.07R
LAMAR          CLOUDY    58  49  72 N12       30.04R
SPRINGFIELD      N/A     59  50  72 NW20      30.03R
$$


USA.gov is the U.S. government's official web portal to all federal, state and local government web resources and services.